World > North America > United States > Wyoming > Burns  

Burns, WY Hourly Weather Updates

Feedback E-mail the Weather

Quick Clicks

Burns, WY Weather Maps

°F °C°F °C
Burns Weather Map
UTC Time: 6/17/2024, 21:11
Your Time:

Burns, WY Regional Weather

Expires:202406172200;;194992
ASUS45 KCYS 172110
RWRWY 

WYOMING REGIONAL WEATHER ROUNDUP
NATIONAL WEATHER SERVICE CHEYENNE WY
300 PM MDT MON JUN 17 2024

NOTE:  "FAIR" INDICATES FEW OR NO CLOUDS BELOW 12,000 FEET
WITH NO SIGNIFICANT WEATHER AND/OR OBSTRUCTIONS TO VISIBILITY.


WYZ021-027>030-104>119-172200-
...SOUTHERN WYOMING...
  
CITY           SKY/WX    TMP DP  RH WIND       PRES   REMARKS
EVANSTON       FAIR      67  33  28 W26G40    29.71S                  
KEMMERER       FAIR      64  28  25 NW30G38   29.71S                  
FORT BRIDGER   FAIR      73  29  19 W25G36    29.70S                  
ROCK SPRINGS   PTSUNNY   75  30  19 W21G38    29.61R                  
DIXON          FAIR      84  27  12 S28G38    29.66F                  
RAWLINS        LGT RAIN  81  23  11 S36G49    29.60F                  
SARATOGA       FAIR      82  23  11 S26G40    29.67S                  
LARAMIE        FAIR      87  29  12 SW31G45   29.66F                  
CHEYENNE       FAIR      84  43  23 S14G26    29.62F                  
TORRINGTON     FAIR      76  57  51 SE20G28   29.51F                  
PINE BLUFFS      N/A     82  50  32 SE16      29.60F                  

$$
  

SKY/WX - Weather  TMP - Temperature  DP - Dew Point  RH - Humidity
WIND - Wind Direction/Speed PRES - Barometric Pressure VSB - Visibility
WCI - Wind Chill Index E13G22 Wind - East Wind 13 mph/Gusts of 22 mph

Trending Headlines

Trending Entertainment Headlines

Burns Radar Loop

Use the map search tool if you want to place a location marker on the radar map...

Burns Quick Facts

National Two Day Weather Forecast


E-mail the Burns Weather Forecast

Voice your opinion or tell us about page issues...